Regional Weather Roundup
Issued by NWS

Home | Current Version | Previous Version | Text Only | Print | Product List | Glossary On
Versions: 1 2 3 4 5 6 7 8 9 10 11 12 13 14 15 16 17 18 19 20 21 22 23 24 25 26 27 28 29 30 31 32 33 34 35 36 37 38 39 40 41 42 43 44 45 46 47 48 49 50
000
ASHW40 PHFO 041630
RWRHI

WEATHER ROUNDUP FOR HAWAII
NATIONAL WEATHER SERVICE HONOLULU HI
600 AM HST MON MAY 04 2015

THIS IS AN AUTOMATED REPORT THAT HAS NOT BEEN QUALITY CONTROLLED.

NOTE..."FAIR" INDICATES FEW OR NO CLOUDS BELOW 12,000 FEET WITH NO
SIGNIFICANT WEATHER AND/OR OBSTRUCTIONS TO VISIBILITY.

* - THESE SITES REPORT LIMITED FIELDS

HIZ001>004-041700-
KAUAI-NIIHAU-

CITY           SKY/WX    TMP DP  RH WIND       PRES   REMARKS
LIHUE APT      MOCLDY    75  64  68 E14       30.03S
PORT ALLEN*      N/A     72 N/A N/A E12         N/A
POIPU*           N/A     75 N/A N/A NE8G15      N/A
PRINCEVILLE*     N/A     70 N/A N/A MISG        N/A
KOKOLE POINT*  NOT AVBL
MOLOAA DAIRY*  NOT AVBL
WAIMEA HTS*    NOT AVBL
PUU OPAE*      NOT AVBL
PUU LUA*       NOT AVBL
MAKAHA RIDGE*    N/A     66  55  68 E2G10       N/A
$$

HIZ005>011-041700-
OAHU-

CITY           SKY/WX    TMP DP  RH WIND       PRES   REMARKS
HONOLULU       MOCLDY    72  63  73 E9        30.01R
KALAELOA       CLEAR     69  61  75 E3        30.02R
KANEOHE MCB    CLOUDY    75  61  61 E8G16     30.00R
WHEELER FIELD  FAIR      69  60  72 SE8       30.01
BELLOWS*         N/A    N/A N/A N/A E17         N/A
KAHUKU*          N/A    N/A N/A N/A E7G14       N/A
WHEELER*       NOT AVBL
WAIANAE HARBOR NOT AVBL
DILLINGHAM*      N/A     72  61  68 MISG        N/A
KAHUKU TRN*      N/A     70  59  68 E7G17       N/A
KAWAILOA*        N/A     68  61  77 E12G20      N/A
KII*             N/A     75  63  64 E15         N/A
MAKUA RANGE*     N/A     73  59  60 SE3G15      N/A
OAHU FOREST NW NOT AVBL
SCHOFIELD BRK*   N/A     63  55  77 MISG        N/A
SCHOFIELD S*   NOT AVBL
WAIANAE VLY*   NOT AVBL
KUAOKALA*      NOT AVBL
HONOULIUULI*   NOT AVBL
MOKUOLOE IS*   NOT AVBL
PALEHUA*       NOT AVBL
WAIAWA PHB*    NOT AVBL
$$

HIZ012>013-041700-
MOLOKAI-

CITY           SKY/WX    TMP DP  RH WIND       PRES   REMARKS
MOLOKAI AIRPT  PTCLDY    72  60  66 NE14      30.01R
KALAUPAPA      NOT AVBL
MAKAPULAPAI*   NOT AVBL
MOLOKAI 1*     NOT AVBL
PUU ALII*        N/A     55  55 100 CALM        N/A
$$

HIZ016-041700-
KAHOOLAWE-

CITY           SKY/WX    TMP DP  RH WIND       PRES   REMARKS
KAHOOLAWE*     NOT AVBL
HAKIOAWA*        N/A     68  61  78 MISG      30.44R
HONOKANAIA*      N/A     74  64  69 NE14G26   30.01R
KANELOA*         N/A     70  64  83 MISG      29.22
KEALIALALO*      N/A    N/A N/A N/A E18G36    29.99R
LUA MAKIKA*    NOT AVBL
$$

HIZ014>015-041700-
LANAI-

CITY           SKY/WX    TMP DP  RH WIND       PRES   REMARKS
LANAI CITY     MOCLDY    65  61  87 E8        30.05R
LANAI 1*       NOT AVBL
$$

HIZ017>028-041700-
MAUI-

CITY           SKY/WX    TMP DP  RH WIND       PRES   REMARKS
KAHULUI        PTCLDY    71  63  75 E12G18    30.00R
KAPALUA-W MAUI LGT RAIN  68  63  83 E14G26    30.01
HANA AIRPORT   LGT RAIN  68  64  88 S7        30.07R VSB 1/2
HANA*            N/A     70 N/A N/A SE3         N/A
HALEAKALA SUMM   N/A     45 -20   6 SE2G28      N/A
MAALAEA BAY*   NOT AVBL
HALEAKALA*     NOT AVBL
KAUPO GAP*     NOT AVBL
KULA 1*          N/A     45  39  81 NE6         N/A
$$

HIZ023>026-041700-
BIG ISLAND OF HAWAII COAST AND LOWER SLOPES-

CITY           SKY/WX    TMP DP  RH WIND       PRES   REMARKS
KAILUA KONA    MOCLDY    73  60  63 E7        29.97R
HILO           CLOUDY    68  61  78 W9        30.03R
HONOKAA*       NOT AVBL
KAWAIHAE MWT*    N/A     72 N/A N/A E3          N/A
KAWAIHAE*        N/A     72 N/A N/A NE5         N/A
SOUTH POINT*     N/A     68 N/A N/A NE20G28     N/A
UPOLU AIRPORT*   N/A    N/A N/A N/A E15G22      N/A
KAMUELA*       SUNNY     61  48  63 NE6       30.09R
HAKALAU*         N/A     43  43 100 S3G9        N/A
KALOKO-HONOKO*   N/A     72  59  64 E5        29.97R
PALI 2*          N/A     61  54  77 VRB9G16     N/A
KEALAKOMO*       N/A    N/A N/A N/A NE10G16     N/A
KAUPULEHU*     NOT AVBL
KAPAPALA*        N/A     61  57  86 NW3G13      N/A
LOWER KAHUKU*    N/A     57  52  82 VRB5G18     N/A
PUHE CS*         N/A    N/A N/A N/A NE3         N/A
PUHO CS*         N/A     68  59  74 E3          N/A
PTA KEAMUKU*     N/A     54  48  82 CALM        N/A
WAIKOLOA*      NOT AVBL
$$

HIZ027>028-041700-
BIG ISLAND OF HAWAII INTERIOR AND SUMMMITS-

CITY           SKY/WX    TMP DP  RH WIND       PRES   REMARKS
BRADSHAW FIELD CLOUDY    39  35  85 SE5       30.26R
MK VISITOR CEN NOT AVBL
MAUNA KEA*       N/A     39 -22   6 CALM        N/A
MAUNA LOA*       N/A     41 -18   7 MISG        N/A
MAUNA LOA 1*   NOT AVBL
PTA KIPUKA*      N/A     48  45  87 E6          N/A
PTA RANGE 17*    N/A     50  45  81 SE12G17     N/A
PTA WEST*        N/A     72  64  78 SE8G15      N/A
NENE CABIN*      N/A     46 N/A N/A E3G10       N/A
AHUMOA*        NOT AVBL
PTA PORTABLE*  NOT AVBL
PUU MALI*        N/A     48  36  61 SW8         N/A
$$

HIC003-041700-
NORTHWEST ISLANDS-

CITY           SKY/WX    TMP DP  RH WIND       PRES   REMARKS
MIDWAY ISLAND  CLOUDY    68 N/A N/A CALM      30.01S
MIDWAY NOS*    NOT AVBL
FRENCH FRIGATE NOT AVBL
$$

PHZ110>124-180-041700-
BUOY REPORTS

STATION/POSITION TIME  TEMP    WIND        PRES    WAVE   SWELL
                       AIR SEA DIR/SP/G            HT/PER HT/DIR
                 (UTC) (F)     (DEG/KT/KT) (MB)    (FT/S) (FT/D)
BUOY 51001       NOT AVBL
BUOY 51101       1600   74 76   90/ 14/ 16 1017.5R   6/ 9   5/ 90
BUOY 51100       NOT AVBL
BUOY 51002       1600   77 79   90/ 16/ 19 1013.8R   8/ 8   5/100
BUOY 51003       1600   76 79   90/ 10/ 12 1014.9R   6/ 8   7
BUOY 51004       1454   76 77   70/ 16/ 17 1014.9    7/ 8   5/ 50
BARBERS PT BUOY  NOT AVBL
WAIMEA BAY BUOY  1600      77                N/A     4/ 8
KAILUA BAY BUOY  1600      77                N/A     7/ 7   2/ 70
LANAI BUOY       NOT AVBL
BARBERS PT 2     1600      77                N/A     5/ 7   2/190
PAUWELA MAUI     1600      76                N/A     6/ 8   2/ 50
HILO             1600      77                N/A     7/ 8   2/ 70
KANEOHE BAY BUOY 1600      76                N/A     6/ 6
HANALEI KAUAI    1600      78                N/A     6/ 8
KAHULUI HARBOR   1600   73 77   50/ 20/ 25 1015.5R
HONOLULU HARBOR  1600   75 78   50/  6/ 15 1016.0R
KILO NALU        NOT AVBL
HILO HARBOR      NOT AVBL
MOKUOLOE         1600   75 77  100/ 13/ 16 1016.4S
NAWILIWILI       1600   75 77   80/ 14/ 17 1016.5R
WHOTS BUOY       NOT AVBL
BUOY 51028       NOT AVBL
$$

......................KEY........................................
  SKY/WX - SKY CONDITIONS/PRESENT WEATHER
  TMP    - TEMPERATURE IN FAHRENHEIT
  DWPT   - DEWPOINT IN FAHRENHEIT
  RH     - RELATIVE HUMIDITY IN PERCENT
  WIND   - DIRECTION AND SPEED /MPH FOR ISLANDS...KTS FOR BUOYS/
  PRES   - MEAN SEA LEVEL PRESSURE IN INCHES OF HG
  VSB    - VISIBILITY IN MILES
  HX     - HEAT INDEX
  WCI    - WIND CHILL INDEX
  VRB    - VARIABLE WIND DIRECTION
  N/A    - NOT AVAILABLE


USA.gov is the U.S. government's official web portal to all federal, state and local government web resources and services.